Regional Weather Roundup
Issued by NWS

Home | Current Version | Previous Version | Text Only | Print | Product List | Glossary Off
Versions: 1 2 3 4 5 6 7 8 9 10 11 12 13 14 15 16 17 18 19 20 21 22 23 24 25 26 27 28

000
ASUS45 KPSR 202010
RWRAZ

ARIZONA HOURLY REGIONAL WEATHER ROUNDUP
NATIONAL WEATHER SERVICE PHOENIX AZ
100 PM MST FRI APR 20 2018

NOTE: FAIR INDICATES FEW OR NO CLOUDS BELOW 12,000 FEET WITH NO
SIGNIFICANT WEATHER AND/OR OBSTRUCTIONS TO VISIBILITY.

AZZ001>003-036-202100-
NORTHWEST ARIZONA

CITY           SKY/WX    TMP DP  RH WIND       PRES   REMARKS
BULLHEAD CITY  SUNNY     77  30  18 CALM      29.95F
KINGMAN        MOSUNNY   66  28  24 MISG      30.01S
$$

AZZ004>008-015-016-018-202100-
NORTH CENTRAL ARIZONA

CITY           SKY/WX    TMP DP  RH WIND       PRES   REMARKS
GRAND CANYON   LGT RAIN  41  33  73 W13G21    30.01
WILLIAMS       CLOUDY    46  25  42 NW13G24   30.01R
PRESCOTT       MOSUNNY   59  28  30 W13G20    30.01F
FLAGSTAFF      CLOUDY    41  27  57 W7G23     30.01F
PAYSON         CLOUDY    52  23  32 VRB5G13   30.04S
PAGE           LGT RAIN  45  41  86 NW7       29.99R
$$

AZZ009>014-017-202100-
NORTHEAST ARIZONA

CITY           SKY/WX    TMP DP  RH WIND       PRES   REMARKS
WINSLOW        CLOUDY    54  26  34 W20G28    29.99R
SAINT JOHNS    CLOUDY    56  16  20 W20G31    29.97R
WINDOW ROCK    CLOUDY    49  16  26 SW23G30   29.97R
SHOW LOW       PTSUNNY   50  18  27 SW21G26   30.03R
$$

AZZ540-542>544-546-548-202100-
GREATER PHOENIX AREA

CITY           SKY/WX    TMP DP  RH WIND       PRES   REMARKS
PHOENIX        MOSUNNY   74  29  19 W14       29.99F
BUCKEYE        SUNNY     73  27  17 NW10G17   30.00F
LUKE AFB       SUNNY     73  28  19 SW16      29.97F
DEER VALLEY    SUNNY     69  27  20 MISG      29.99F
SCOTTSDALE     SUNNY     70  30  22 SW10G16   30.01F
MESA-FALCON    MOSUNNY   70  28  21 W10G18    30.01F
MESA-GATEWAY   SUNNY     70  27  19 SW10      30.02
CHANDLER       SUNNY     72  27  18 SW3G12    30.00F
$$

AZZ539-553-202100-
SOUTHWEST MARICOPA COUNTY AND PINAL COUNTY

CITY           SKY/WX    TMP DP  RH WIND       PRES   REMARKS
CASA GRANDE    SUNNY     69  28  21 W13G22    30.02F
GILA BEND      FAIR      74  26  17 NW10G20   30.00F
$$

AZZ503-504-507>509-202100-
SOUTHEAST ARIZONA

CITY           SKY/WX    TMP DP  RH WIND       PRES   REMARKS
TUCSON         SUNNY     69  19  15 VRB7G20   30.05F
DAVIS-MONTHAN  SUNNY     70  21  16 W13       30.03F
RYAN FIELD     SUNNY     70  19  14 W8G20     30.05F
NOGALES        SUNNY     69  10  10 VRB5      30.04F
SIERRA VISTA   SUNNY     66   6   9 W16G24    30.06
DOUGLAS        SUNNY     69  13  11 MISG      30.02F
SAFFORD        SUNNY     70  18  13 NW21G28   29.97F
$$

AZZ532-202100-
SOUTHWEST ARIZONA

CITY           SKY/WX    TMP DP  RH WIND       PRES   REMARKS
YUMA           SUNNY     78  31  17 W10G17    30.01F
$$

CAZ041-043-047-048-061-525>527-560>570-202100-
SOUTHERN CALIFORNIA

CITY           SKY/WX    TMP DP  RH WIND       PRES   REMARKS
DOWNTOWN L.A.  SUNNY     73  46  38 CALM      30.06F
L.A. AIRPORT   SUNNY     70  49  47 SW13      30.08F
SAN DIEGO      SUNNY     66  48  52 W14       30.11S
BURBANK        SUNNY     73  44  35 CALM      30.05F
ONTARIO        SUNNY     67  41  38 VRB3      30.07F
RIVERSIDE      SUNNY     67  41  38 VRB3      30.07F
PALM SPRINGS   SUNNY     80  33  18 SE7       30.01F
EL CENTRO NAS  SUNNY     79  33  19 E6        30.01F
IMPERIAL       SUNNY     79  36  21 W6        29.99F
BLYTHE         SUNNY     79  29  16 NW10G21   29.99F
NEEDLES        SUNNY     81  30  15 SE10      29.95F
$$

NVZ020-UTZ003-202100-
SOUTHERN NEVADA-UTAH

CITY           SKY/WX    TMP DP  RH WIND       PRES   REMARKS
LAS VEGAS      MOSUNNY   77  29  17 NW21G32   29.98S
SALT LAKE CITY PTSUNNY   60  35  39 N7        29.97R
$$

NMZ009-TXZ055-202100-
NEW MEXICO-WEST TEXAS

CITY           SKY/WX    TMP DP  RH WIND       PRES   REMARKS
ALBUQUERQUE    PTSUNNY   60   2   9 W20G30    29.92S
EL PASO        MOSUNNY   77  14   9 W23G36    29.89F
$$


........................KEY........................
SKY/WX - SKY CONDITION/WEATHER
TMP    - TEMPERATURE IN FAHRENHEIT
DP     - DEW POINT IN FAHRENHEIT
RH     - RELATIVE HUMIDITY IN PERCENT
WIND   - DIRECTION AND SPEED IN MILES PER HOUR (MPH)
VRB    - VARIABLE WIND DIRECTION
PRES   - MEAN SEA LEVEL PRESSURE IN INCHES OF MERCURY
         F - FALLING PRESSURE   R - RISING PRESSURE
         S - STEADY PRESSURE
VSB    - VISIBILITY IN MILES
HX     - HEAT INDEX IN FAHRENHEIT
WCI    - WIND CHILL INDEX IN FAHRENHEIT
TC     - TEMPERATURE IN CELSIUS WHICH IS ALSO KNOWN AS
         TEMPERATURE IN CENTIGRADE
AFB    - AIR FORCE BASE
         LUKE AFB IS LUKE AIR FORCE BASE
         DAVIS-MONTHAN IS DAVIS-MONTHAN AIR FORCE BASE
NAS    - NAVAL AIR STATION
         EL CENTRO NAS IS EL CENTRO NAVAL AIR STATION
N/A    - NOT AVAILABLE





USA.gov is the U.S. government's official web portal to all federal, state and local government web resources and services.